Flag for U.S.A. Weather past 2 weeks in Richmond, Virginia, U.S.A.

Now
64 °F

Passing clouds.


Feels Like: 64 °F
Forecast: 54 / 70 °F
Wind: 16 mph from Northwest

Location: Richmond International Airport

Current Time: Apr 21, 2015 at 10:56:55 AM

Latest Report: Apr 21, 2015 at 9:54 AM


Visibility: 10 mi

Pressure: 29.83 "Hg

Humidity: 34%

Dew point: 35 °F

Location of RichmondLocation

Historic Weather in Richmond — Graph

°F

Richmond temperature yesterday

Maximum temperature yesterday: 78 °F (at 1:54 PM)
Minimum temperature yesterday: 66 °F (at 1:54 AM)
Average temperature yesterday: 71 °F

Past Weeks' High & Low Weather Summary

 TemperatureHumidityPressure
High83 °F (Apr 10, 2:54 PM)100% (Apr 8, 3:04 AM)30.40 "Hg (Apr 8, 3:04 AM)
Low44 °F (Apr 12, 3:54 AM)22% (Apr 11, 4:54 PM)29.58 "Hg (Apr 20, 5:54 PM)
Average63 °F68%30.11 "Hg
* Reported Apr 6 8:54 AM — Apr 21 8:54 AM, Richmond, Weather by CustomWeather, © 2015

Note: Actual official high and low records may vary slightly from our data, if they occured in-between our weather recording intervals... More about our weather records

Advertising

Richmond weather history for previous 24 hours

 ConditionsComfort  
Time TempWeatherWind HumidityBarometerVisibility
8:54 AM
Tue, Apr 21
63 °FPassing clouds.13 mph43%29.82 "Hg10 mi
7:54 AM62 °FPassing clouds.14 mph50%29.80 "Hg10 mi
6:54 AM61 °FPassing clouds.14 mph52%29.76 "Hg10 mi
5:54 AM64 °FPassing clouds.13 mph56%29.72 "Hg10 mi
4:54 AM65 °FPassing clouds.10 mph63%29.68 "Hg10 mi
3:54 AM66 °FPassing clouds.10 mph73%29.66 "Hg10 mi
2:54 AM67 °FPassing clouds.14 mph73%29.65 "Hg10 mi
1:54 AM67 °FPassing clouds.12 mph79%29.64 "Hg10 mi
12:54 AM68 °FPartly cloudy.17 mph76%29.63 "Hg10 mi
11:54 PM
Mon, Apr 20
69 °FPartly cloudy.17 mph70%29.62 "Hg10 mi
10:54 PM69 °FPartly cloudy.17 mph70%29.62 "Hg10 mi
9:54 PM71 °FMostly cloudy.18 mph68%29.62 "Hg10 mi
8:54 PM72 °FMostly cloudy.16 mph66%29.60 "Hg10 mi
7:54 PM73 °FMore clouds than sun.18 mph64%29.60 "Hg10 mi
6:54 PM75 °FMore clouds than sun.13 mph60%29.58 "Hg10 mi
5:54 PM77 °FOvercast.13 mph56%29.58 "Hg10 mi
4:54 PM78 °FMore clouds than sun.13 mph56%29.60 "Hg10 mi
3:54 PM78 °FMore clouds than sun.15 mph58%29.61 "Hg10 mi
2:54 PM78 °FPartly sunny.15 mph56%29.65 "Hg10 mi
1:54 PM78 °FMore clouds than sun.17 mph58%29.65 "Hg10 mi
12:54 PM75 °FPartly sunny.12 mph66%29.68 "Hg10 mi
11:54 AM73 °FCloudy.10 mph74%29.70 "Hg10 mi
10:54 AM70 °FOvercast.9 mph79%29.72 "Hg10 mi
Weather by CustomWeather, © 2015

See weather overviewHow to use our weather pages